Track ONEWEB-0297 now! 10-day predictions ONEWEB-0297 is classified as:
1 49086U 21075M 24325.80856871 -.00000621 00000-0 -17604-2 0 9992 2 49086 87.8878 104.8647 0001612 101.1174 259.0135 13.12441910159972